Regional Weather Roundup
Issued by NWS

Home | Current Version | Previous Version | Graphics & Text | Print | Product List | Glossary On
Versions: 1 2 3 4 5 6 7 8 9 10 11 12 13 14 15 16 17 18 19 20 21 22 23 24 25 26 27
000
ASUS45 KBOU 161307
RWRCO

WEATHER ROUNDUP FOR COLORADO
NATIONAL WEATHER SERVICE DENVER/BOULDER CO
600 AM MST MON JAN 16 2017

NOTE: "FAIR" INDICATES FEW OR NO CLOUDS BELOW 12000 FEET WITH NO
SIGNIFICANT WEATHER AND/OR OBSTRUCTIONS TO VISIBILITY.

COZ001>005-013-030-031-161400-
...NORTHWEST COLORADO...

CITY           SKY/WX    TMP DP  RH WIND       PRES   REMARKS
CRAIG          CLOUDY    13  10  88 NW5       30.11R WCI   5
HAYDEN         CLOUDY    16  10  79 W5        30.07R WCI   9
MEEKER         FAIR      15  12  88 CALM      30.06S
MOUNT WERNER   NOT AVBL
STEAMBOAT SPGS CLOUDY    18  17  93 CALM      30.05R VSB 1/2
WALDEN           N/A    N/A N/A N/A CALM      30.02R
$$

COZ006>008-011-161400-
...WEST CENTRAL VALLEYS...

CITY           SKY/WX    TMP DP  RH WIND       PRES   REMARKS
GRAND JUNCTION FAIR      33  18  53 E9        29.99S WCI  25
MONTROSE       CLOUDY    31  29  92 SE5       30.01R WCI  26
EAGLE          LGT SNOW  27  26  96 W5        30.01R FOG     WCI  22
RIFLE          MOCLDY    29  20  69 VRB3      30.02S
DELTA          CLOUDY    35  29  78 N5        29.99R WCI  31
NUCLA          FAIR      32  30  93 E5        30.00R WCI  27
$$

COZ017>023-064>068-161400-
...SOUTHWEST COLORADO...

CITY           SKY/WX    TMP DP  RH WIND       PRES   REMARKS
DURANGO        FLURRIES  32  30  92 CALM      29.87R
CORTEZ         MOCLDY    33  31  92 NW6       29.91R WCI  28
PAGOSA SPRINGS LGT SNOW  32  32 100 CALM      29.88S
TELLURIDE      CLOUDY    26  25  99 CALM      29.93S
WOLF CREEK PAS   N/A     21  21 100 N6        29.95R WCI  14
$$

COZ009-010-012-014-032>034-037-058>063-161400-
...CENTRAL COLORADO...

CITY           SKY/WX    TMP DP  RH WIND       PRES   REMARKS
ASPEN          CLOUDY    25  25 100 N5        29.95R FOG     WCI  19
BUENA VISTA    FOG       30  29  95 CALM      29.89R VSB 1
COPPER MTN     CLOUDY    23  19  86 MISG      29.94S HAZE
BERTHOUD PASS  NOT AVBL
COTTONWOOD PAS LGT SNOW  32  30  93 CALM      29.91R
GUNNISON       LGT SNOW  23  21  92 CALM      29.93R FOG
KREMMLING      LGT SNOW  27  23  86 CALM      30.00R
LEADVILLE      CLOUDY    23  19  85 N8        29.90R WCI  14
MONARCH PASS   SNOW      23  21  93 MISG      30.02R VSB<1/4
SALIDA         CLOUDY    32  32  99 CALM      29.97R
SUNLIGHT       CLOUDY    19  19 100 CALM      30.00R FOG
WILKERSON PASS CLOUDY   N/A N/A N/A NE10G22   29.94R HAZE
$$

COZ069>075-161400-
...SAN LUIS VALLEY/SANGRE DE CRISTO MOUNTAINS...

CITY           SKY/WX    TMP DP  RH WIND       PRES   REMARKS
ALAMOSA        LGT SNOW  31  31 100 E3        29.86R FOG
LA VETA PASS   LGT SNOW  27  23  86 SE13      29.88R WCI  16
SAGUACHE       MIX PCPN  32  30  93 NW13      29.88R WCI  22
$$

COZ035-036-038>040-161400-
...NORTHERN COLORADO FRONT RANGE...

CITY           SKY/WX    TMP DP  RH WIND       PRES   REMARKS
DENVER INTL AP LGT SNOW  28  26  92 N10       29.98R VSB 3/4 WCI  19
DMNS CITY PARK   N/A     29  29 100 N7        30.00R WCI  22
AURORA         LGT SNOW  27  27 100 N12       29.99R FOG     WCI  17
FRONT RANGE AP NOT AVBL
ERIE MUNI ARPT LGT SNOW  31  30  98 N3        30.00R
BOULDER MUN AP LGT SNOW  30  30 100 CALM      30.00R
CENTENNIAL     LGT SNOW  27  25  92 N10       29.98R VSB 3/4 WCI  17
BROOMFIELD     LGT SNOW  28  28 100 CALM      29.99R VSB 3/4
FORT COLLINS   CLOUDY    34  27  75 N13       30.00R WCI  25
LONGMONT       LGT SNOW  32  31  96 CALM      30.03R
$$

COZ041-046-047-076>085-087-088-161400-
...PIKES PEAK/PALMER DIVIDE AND SOUTHERN FOOTHILLS...

CITY           SKY/WX    TMP DP  RH WIND       PRES   REMARKS
COLO. SPRINGS  FLURRIES  31  24  75 NW17G28   29.89R WCI  19
A. F. ACADEMY  MIX PCPN  29  25  85 N22G30    29.90R WCI  15
SCHRIEVER AFB  NOT AVBL
ELLICOTT       MIX PCPN N/A N/A N/A N25G36    29.85R
FALCON         CLOUDY    28  22  79 N26G35    29.87R HAZE    WCI  13
FORT CARSON    LGT SNOW  32  30  93 NE20G30   29.88S WCI  20
LIMON          LGT SNOW  27  26  96 NW22      29.91R FOG     WCI  13
MONUMENT HILL  LGT SNOW  23  21  93 N15G22    29.95R WCI  10
TRINIDAD       SNOW      32  29  88 NE3       29.89R VSB 1/2
$$

COZ042>045-048>051-090-091-161400-
...NORTHEAST COLORADO...

CITY           SKY/WX    TMP DP  RH WIND       PRES   REMARKS
GREELEY ARPT   FLURRIES  34  25  69 NW14      30.00R WCI  25
AKRON          LGT SNOW  28  26  92 N20       29.92S FOG     WCI  15
BURLINGTON     LGT SNOW  30  28  92 N16       29.87S FOG     WCI  19
WRAY           LGT SNOW N/A N/A N/A N10       29.92S
STERLING       LGT SNOW  32  30  93 N14       29.95S WCI  22
HOLYOKE        LGT SNOW  34  32  93 N13       29.94S WCI  25
FORT MORGAN    LGT SNOW  30  28  93 N12       29.97R WCI  21
$$

COZ086-089-092>099-161400-
...SOUTHEAST COLORADO...

CITY           SKY/WX    TMP DP  RH WIND       PRES   REMARKS
PUEBLO         LGT SNOW  34  31  88 N14       29.91R FOG     WCI  25
LA JUNTA       LGT SNOW  33  30  88 NW12      29.90R FOG     WCI  24
LAMAR          LGT SNOW  32  30  92 W7        29.86R FOG     WCI  26
SPRINGFIELD      N/A     30  29  96 NW18      29.82R WCI  18
$$




USA.gov is the U.S. government's official web portal to all federal, state and local government web resources and services.